EW2345 Weather Reports


Display with metric or nautical units.
time (UTC)temp
F
wind
direction
speed
MPH
gust
MPH
rain 1hr
in
rain 24hr
in
rain mn
in
humidity
%
barometer
mb
20260507123410 66 233 12.0 20.0 0.00 0.00 0.00 70 1009.5
20260507122911 65 243 10.0 20.0 0.00 0.00 0.00 72 1009.6
20260507122410 66 240 12.0 21.0 0.00 0.00 0.00 71 1009.6
20260507121910 67 235 9.0 16.0 0.00 0.00 0.00 70 1009.7
20260507121410 65 225 9.0 15.0 0.00 0.00 0.00 76 1009.7
20260507120909 64 237 9.0 15.0 0.00 0.00 0.00 74 1009.8
20260507120409 64 247 9.0 16.0 0.00 0.00 0.00 73 1009.7
20260507115910 65 248 8.0 15.0 0.00 0.00 0.00 71 1009.8
20260507114909 65 250 8.0 12.0 0.00 0.00 0.00 74 1009.8
20260507114409 63 246 9.0 16.0 0.00 0.00 0.00 72 1009.8
20260507113910 64 235 6.0 14.0 0.00 0.00 0.00 73 1009.9
20260507113409 65 252 9.0 15.0 0.00 0.00 0.00 70 1009.9
20260507112911 66 241 10.0 16.0 0.00 0.00 0.00 68 1009.8
20260507111910 63 246 7.0 12.0 0.00 0.00 0.00 70 1009.8
20260507111410 63 235 8.0 13.0 0.00 0.00 0.00 67 1009.9
20260507110910 64 235 10.0 18.0 0.00 0.00 0.00 64 1009.8
20260507105911 64 235 7.0 10.0 0.00 0.00 0.00 65 1009.9
20260507104410 65 224 7.0 12.0 0.00 0.00 0.00 67 1009.9
20260507103909 64 256 6.0 9.0 0.00 0.00 0.00 67 1009.9
20260507103410 64 69 1.0 3.0 0.00 0.00 0.00 68 1009.9
20260507102910 63 69 0.0 2.0 0.00 0.00 0.00 68 1009.9
20260507102409 63 69 0.0 1.0 0.00 0.00 0.00 69 1010.0
20260507101910 63 69 0.0 2.0 0.00 0.00 0.00 67 1010.0
20260507101410 62 69 0.0 0.0 0.00 0.00 0.00 70 1010.0
20260507100909 61 69 0.0 0.0 0.00 0.00 0.00 67 1010.0
20260507100410 62 69 0.0 2.0 0.00 0.00 0.00 66 1010.0
20260507095910 61 69 0.0 3.0 0.00 0.00 0.00 67 1010.0
20260507095410 61 69 1.0 3.0 0.00 0.00 0.00 67 1010.1
20260507094910 61 69 1.0 3.0 0.00 0.00 0.00 67 1010.1
20260507094409 62 69 1.0 5.0 0.00 0.00 0.00 66 1010.1
20260507093909 62 69 0.0 5.0 0.00 0.00 0.00 67 1010.1
20260507093410 62 69 0.0 5.0 0.00 0.00 0.00 68 1010.1
20260507092910 62 69 1.0 5.0 0.00 0.00 0.00 68 1010.1
20260507092410 61 69 3.0 6.0 0.00 0.00 0.00 70 1010.2
20260507091910 60 69 1.0 3.0 0.00 0.00 0.00 74 1010.3
20260507091409 60 69 1.0 3.0 0.00 0.00 0.00 72 1010.3
20260507090909 60 69 2.0 3.0 0.00 0.00 0.00 74 1010.3
20260507090410 59 69 2.0 5.0 0.00 0.00 0.00 75 1010.3
20260507085911 58 69 1.0 5.0 0.00 0.00 0.00 74 1010.3
20260507085410 57 69 3.0 5.0 0.00 0.00 0.00 76 1010.4
20260507084910 57 69 1.0 2.0 0.00 0.00 0.00 79 1010.4
20260507084409 57 69 1.0 5.0 0.00 0.00 0.00 78 1010.5
20260507083910 56 69 0.0 2.0 0.00 0.00 0.00 81 1010.5
20260507083410 56 69 0.0 0.0 0.00 0.00 0.00 83 1010.4
20260507082910 55 69 0.0 0.0 0.00 0.00 0.00 83 1010.4
20260507082409 55 69 0.0 2.0 0.00 0.00 0.00 84 1010.4
20260507081410 53 69 1.0 2.0 0.00 0.00 0.00 86 1010.4
20260507080910 53 69 0.0 2.0 0.00 0.00 0.00 87 1010.5
20260507075910 53 69 2.0 3.0 0.00 0.00 0.00 88 1010.6
20260507074910 52 69 1.0 3.0 0.00 0.00 0.00 88 1010.6
20260507074410 52 69 1.0 3.0 0.00 0.00 0.00 89 1010.7
20260507073909 51 69 3.0 5.0 0.00 0.00 0.00 89 1010.7
20260507073409 51 69 1.0 5.0 0.00 0.00 0.00 89 1010.7
20260507072410 50 69 1.0 3.0 0.00 0.00 0.00 92 1010.9
20260507071910 50 69 0.0 3.0 0.00 0.00 0.00 93 1010.9
20260507071409 49 69 1.0 3.0 0.00 0.00 0.00 93 1011.0
20260507070410 49 69 0.0 2.0 0.00 0.00 0.00 95 1011.0
20260507065910 49 69 0.0 1.0 0.00 0.00 0.00 97 1011.0
20260507065409 48 69 0.0 0.0 0.00 0.00 0.00 97 1011.0
20260507064909 48 69 1.0 2.0 0.00 0.00 0.00 97 1011.1
20260507064409 48 69 0.0 1.0 0.00 0.00 0.00 98 1011.2
20260507063910 48 69 0.0 0.0 0.00 0.00 0.00 98 1011.1
20260507063410 47 69 0.0 0.0 0.00 0.00 0.00 98 1011.1
20260507062409 47 69 0.0 1.0 0.00 0.00 0.00 98 1011.1
20260507061910 47 69 1.0 2.0 0.00 0.00 0.00 98 1010.9
20260507061409 46 69 1.0 2.0 0.00 0.00 0.00 99 1011.0
20260507060909 45 69 0.0 1.0 0.00 0.00 0.00 98 1011.0
20260507060409 45 69 0.0 0.0 0.00 0.00 0.00 98 1011.0
20260507055410 44 69 1.0 2.0 0.00 0.00 0.00 97 1011.0
20260507054910 44 69 0.0 2.0 0.00 0.01 0.00 97 1011.0
20260507053910 53 67 0.0 0.0 0.00 0.01 0.00 84 1012.9
20260507053410 53 67 0.0 0.0 0.00 0.01 0.00 84 1012.9
20260507052911 53 67 0.0 0.0 0.00 0.01 0.00 84 1012.9
20260507052410 53 67 0.0 0.0 0.00 0.01 0.00 84 1012.9
20260507051910 53 67 0.0 0.0 0.00 0.01 0.00 84 1012.9
20260507051409 53 67 0.0 0.0 0.00 0.01 0.00 84 1012.9
20260507050409 53 67 0.0 0.0 0.00 0.01 0.00 84 1012.9
20260507045911 53 67 0.0 0.0 0.00 0.01 0.00 84 1012.9
20260507045410 53 67 0.0 0.0 0.00 0.01 0.00 84 1012.9
20260507044410 53 67 0.0 0.0 0.00 0.01 0.00 84 1012.9
20260507043910 53 67 0.0 0.0 0.00 0.01 0.00 84 1012.9
20260507043410 53 67 0.0 0.0 0.00 0.01 0.00 84 1012.9
20260507042912 53 67 0.0 0.0 0.00 0.01 0.00 84 1012.9
20260507042410 53 67 0.0 0.0 0.00 0.01 0.00 84 1012.9
20260507041910 53 67 0.0 0.0 0.00 0.01 0.00 84 1012.9
20260507041410 53 67 0.0 0.0 0.00 0.01 0.00 84 1012.9
20260507040911 53 67 0.0 0.0 0.00 0.01 0.00 84 1012.9
20260507040410 53 67 0.0 0.0 0.00 0.01 0.00 84 1012.9
20260507035911 53 67 0.0 0.0 0.00 0.01 0.00 84 1012.9
20260507034410 53 67 0.0 0.0 0.00 0.01 0.00 84 1012.9
20260507033910 53 67 0.0 0.0 0.00 0.01 0.00 84 1012.9
20260507033410 53 67 0.0 0.0 0.00 0.01 0.00 84 1012.9
20260507032911 53 67 0.0 0.0 0.00 0.01 0.00 84 1012.9
20260507032410 53 67 0.0 0.0 0.00 0.01 0.00 84 1012.9
20260507031910 53 67 0.0 0.0 0.00 0.01 0.00 84 1012.9
20260507030910 53 67 0.0 0.0 0.00 0.01 0.00 84 1012.9
20260507025410 53 67 0.0 0.0 0.00 0.01 0.00 84 1012.9
20260507024910 53 67 0.0 0.0 0.00 0.01 0.00 84 1012.9
20260507024409 53 67 0.0 0.0 0.00 0.01 0.00 84 1012.9
20260507023909 53 67 0.0 0.0 0.00 0.01 0.00 84 1012.9
20260507023410 53 67 0.0 0.0 0.00 0.01 0.00 84 1012.9
20260507022911 53 67 0.0 0.0 0.00 0.01 0.00 84 1012.9
20260507021910 53 67 0.0 0.0 0.00 0.01 0.00 84 1012.9
20260507021410 53 67 0.0 0.0 0.00 0.01 0.00 84 1012.9
20260507020910 53 67 0.0 0.0 0.00 0.01 0.00 84 1012.9
20260507015409 53 67 0.0 0.0 0.00 0.01 0.00 84 1012.9
20260507014910 53 67 0.0 0.0 0.00 0.01 0.00 84 1012.9
20260507014410 53 67 0.0 0.0 0.00 0.01 0.00 84 1012.9
20260507013910 53 67 0.0 0.0 0.00 0.01 0.00 84 1012.9
20260507013410 53 67 0.0 0.0 0.00 0.01 0.00 84 1012.9
20260507012911 53 67 0.0 0.0 0.00 0.01 0.00 84 1012.9
20260507011910 53 67 0.0 0.0 0.00 0.01 0.00 84 1012.9
20260507011410 53 67 0.0 0.0 0.00 0.01 0.00 84 1012.9
20260507010410 53 67 0.0 0.0 0.00 0.01 0.00 84 1012.9
20260507005911 53 67 0.0 0.0 0.00 0.01 0.00 84 1012.9
20260507005409 53 67 0.0 0.0 0.00 0.01 0.00 84 1012.9
20260507004910 53 67 0.0 0.0 0.00 0.01 0.00 84 1012.9
20260507004410 53 67 0.0 0.0 0.00 0.01 0.00 84 1012.9
20260507003910 53 67 0.0 0.0 0.00 0.01 0.00 84 1012.9
20260507003410 53 67 0.0 0.0 0.00 0.01 0.00 84 1012.9
20260507002911 53 67 0.0 0.0 0.00 0.01 0.00 84 1012.9
20260507002410 53 67 0.0 0.0 0.00 0.01 0.00 84 1012.9
20260507001410 53 67 0.0 0.0 0.00 0.01 0.00 84 1012.9
20260507000910 53 67 0.0 0.0 0.00 0.01 0.00 84 1012.9
20260507000412 53 67 0.0 0.0 0.00 0.01 0.00 84 1012.9
20260506234910 53 67 0.0 0.0 0.00 0.01 0.00 84 1012.9
20260506234410 53 67 0.0 0.0 0.00 0.01 0.00 84 1012.9
20260506233910 53 67 0.0 0.0 0.00 0.01 0.00 84 1012.9
20260506233410 53 67 0.0 0.0 0.00 0.01 0.00 84 1012.9
20260506232911 53 67 0.0 0.0 0.00 0.01 0.00 84 1012.9
20260506231909 53 67 0.0 0.0 0.00 0.01 0.00 84 1012.9
20260506231410 53 67 0.0 0.0 0.00 0.01 0.00 84 1012.9
20260506230911 53 67 0.0 0.0 0.00 0.01 0.00 84 1012.9
20260506230410 53 67 0.0 0.0 0.00 0.01 0.00 84 1012.9
20260506225409 53 67 0.0 0.0 0.00 0.01 0.00 84 1012.9
20260506224909 53 67 0.0 0.0 0.00 0.01 0.00 84 1012.9
20260506224409 53 67 0.0 0.0 0.00 0.01 0.00 84 1012.9
20260506223910 53 67 0.0 0.0 0.00 0.01 0.00 84 1012.9
20260506223410 53 67 0.0 0.0 0.00 0.01 0.00 84 1012.9
20260506222410 53 67 0.0 0.0 0.00 0.01 0.00 84 1012.9
20260506221910 53 67 1.0 3.0 0.00 0.01 0.00 84 1012.9
20260506221410 53 66 1.0 5.0 0.00 0.01 0.00 84 1013.0
20260506220910 54 69 5.0 7.0 0.00 0.01 0.00 84 1013.1
20260506220410 54 82 2.0 5.0 0.00 0.01 0.00 84 1013.1
20260506215910 54 80 3.0 7.0 0.00 0.01 0.00 83 1013.1
20260506215410 54 66 1.0 8.0 0.00 0.01 0.01 83 1013.1
20260506214910 54 79 3.0 7.0 0.00 0.01 0.01 83 1013.1
20260506214410 54 71 2.0 6.0 0.00 0.01 0.01 83 1013.1
20260506213910 54 73 3.0 7.0 0.00 0.01 0.01 82 1013.1
20260506212409 55 79 4.0 8.0 0.00 0.01 0.01 82 1013.1
20260506211910 55 72 3.0 7.0 0.00 0.01 0.01 82 1013.1
20260506211410 55 76 2.0 6.0 0.00 0.01 0.01 82 1013.1
20260506210910 55 76 1.0 5.0 0.00 0.01 0.01 82 1013.1
20260506210410 55 76 2.0 5.0 0.00 0.01 0.01 82 1013.1
20260506205911 55 75 2.0 6.0 0.00 0.01 0.01 82 1013.1
20260506205410 55 62 2.0 7.0 0.00 0.01 0.01 82 1013.0
20260506204910 55 26 3.0 8.0 0.00 0.01 0.01 83 1013.0
20260506204410 54 63 3.0 9.0 0.00 0.01 0.01 83 1012.9
20260506203909 54 74 2.0 6.0 0.00 0.01 0.01 84 1012.8
20260506203410 54 75 2.0 7.0 0.00 0.01 0.01 83 1012.8
20260506202911 54 238 0.0 5.0 0.00 0.01 0.01 83 1012.8
20260506202410 54 238 0.0 1.0 0.00 0.01 0.01 83 1012.8
20260506201910 55 238 0.0 1.0 0.00 0.01 0.01 83 1012.7
20260506201410 55 238 0.0 2.0 0.00 0.01 0.01 82 1012.7
20260506200910 55 238 3.0 5.0 0.00 0.01 0.01 82 1012.7
20260506200410 55 238 3.0 5.0 0.00 0.01 0.01 81 1012.6
20260506195911 56 238 2.0 5.0 0.00 0.01 0.01 81 1012.6
20260506195409 56 238 3.0 6.0 0.00 0.01 0.01 81 1012.6
20260506194410 56 238 5.0 7.0 0.00 0.01 0.01 80 1012.6
20260506193910 56 238 5.0 6.0 0.00 0.01 0.01 80 1012.5
20260506193410 57 238 4.0 6.0 0.00 0.01 0.01 79 1012.5
20260506192911 57 238 5.0 6.0 0.00 0.01 0.01 79 1012.5
20260506192410 57 238 5.0 6.0 0.00 0.01 0.01 79 1012.4
20260506191910 57 238 5.0 7.0 0.00 0.01 0.01 78 1012.4
20260506191410 58 238 5.0 6.0 0.00 0.01 0.01 78 1012.4
20260506190910 58 238 4.0 6.0 0.00 0.01 0.01 78 1012.3
20260506190410 58 238 4.0 6.0 0.00 0.01 0.01 77 1012.4
20260506185911 58 238 2.0 6.0 0.00 0.01 0.01 77 1012.4
20260506185410 58 238 3.0 5.0 0.00 0.01 0.01 77 1012.3
20260506184410 58 238 5.0 7.0 0.00 0.01 0.01 77 1012.3
20260506183410 58 265 3.0 7.0 0.00 0.01 0.01 77 1012.3
20260506182911 58 281 3.0 5.0 0.00 0.01 0.01 77 1012.2
20260506182410 58 281 2.0 5.0 0.00 0.01 0.01 76 1012.3
20260506181910 58 281 2.0 5.0 0.00 0.01 0.01 77 1012.3
20260506181409 58 281 0.0 2.0 0.00 0.01 0.01 77 1012.2
20260506180910 58 281 2.0 8.0 0.00 0.01 0.01 77 1012.3
20260506180410 58 211 2.0 7.0 0.00 0.01 0.01 79 1012.3
20260506175910 58 211 2.0 5.0 0.00 0.01 0.01 80 1012.3
20260506175409 58 211 5.0 7.0 0.00 0.01 0.01 80 1012.3
20260506174909 58 211 5.0 6.0 0.00 0.02 0.01 81 1012.3
20260506173909 58 211 5.0 7.0 0.00 0.02 0.01 80 1012.4
20260506173409 58 211 6.0 9.0 0.00 0.03 0.01 81 1012.5
20260506172911 58 209 6.0 9.0 0.00 0.03 0.01 82 1012.5
20260506172410 58 227 7.0 10.0 0.00 0.03 0.01 81 1012.4
20260506171910 58 236 6.0 10.0 0.00 0.03 0.01 79 1012.5
20260506165910 59 241 7.0 12.0 0.00 0.03 0.01 78 1012.6
20260506165410 59 248 8.0 13.0 0.00 0.03 0.01 77 1012.6
20260506164909 59 246 7.0 12.0 0.00 0.03 0.01 77 1012.5
20260506164409 59 238 9.0 14.0 0.00 0.03 0.01 76 1012.5
20260506163910 60 248 7.0 12.0 0.00 0.03 0.01 74 1012.6
20260506163410 60 230 7.0 12.0 0.00 0.03 0.01 71 1012.6
20260506162910 60 234 8.0 12.0 0.00 0.03 0.01 71 1012.5
20260506162410 61 216 9.0 14.0 0.00 0.03 0.01 72 1012.5
20260506161910 61 202 9.0 14.0 0.00 0.03 0.01 71 1012.5
20260506161410 61 207 9.0 14.0 0.00 0.03 0.01 72 1012.6
20260506160910 61 207 9.0 15.0 0.00 0.03 0.01 70 1012.6
20260506160410 61 208 10.0 18.0 0.00 0.03 0.01 67 1012.6
20260506155410 62 45 0.0 1.0 0.00 0.03 0.01 65 1012.5
20260506154910 62 45 0.0 0.0 0.00 0.03 0.01 63 1012.5
20260506154410 62 45 0.0 2.0 0.00 0.03 0.01 60 1012.5
20260506153909 62 45 2.0 3.0 0.00 0.03 0.01 59 1012.5
20260506153410 63 45 0.0 5.0 0.00 0.03 0.01 57 1012.6
20260506152911 63 45 0.0 2.0 0.00 0.03 0.01 58 1012.5
20260506152409 63 45 0.0 2.0 0.00 0.03 0.01 56 1012.6
20260506151910 64 45 1.0 3.0 0.00 0.03 0.01 54 1012.6
20260506150909 63 45 1.0 3.0 0.00 0.03 0.01 55 1012.7
20260506145911 63 45 2.0 5.0 0.00 0.03 0.01 58 1012.9
20260506145410 63 45 1.0 5.0 0.00 0.05 0.01 57 1013.0
20260506144910 63 45 1.0 3.0 0.00 0.07 0.01 57 1013.1
20260506144410 63 45 0.0 3.0 0.00 0.07 0.01 56 1013.2
20260506143910 63 45 1.0 3.0 0.00 0.08 0.01 56 1013.3
20260506143410 63 45 1.0 3.0 0.00 0.08 0.01 56 1013.3
20260506142410 63 45 0.0 3.0 0.00 0.09 0.01 54 1013.4
20260506141910 63 45 2.0 3.0 0.00 0.09 0.01 53 1013.5
20260506141410 63 45 2.0 5.0 0.00 0.09 0.01 54 1013.5
20260506135410 63 46 3.0 6.0 0.00 0.09 0.01 54 1013.7
20260506134910 63 46 2.0 7.0 0.00 0.09 0.01 53 1013.7
20260506134410 63 46 2.0 7.0 0.00 0.09 0.01 54 1013.8
20260506133411 63 46 3.0 7.0 0.00 0.09 0.01 55 1013.8
20260506132911 62 51 1.0 6.0 0.00 0.09 0.01 54 1013.9
20260506132410 62 52 1.0 6.0 0.00 0.09 0.01 54 1013.9
20260506131910 63 73 1.0 6.0 0.00 0.09 0.01 56 1013.9
20260506131410 63 326 1.0 5.0 0.00 0.09 0.01 59 1013.9
20260506130910 64 326 6.0 10.0 0.00 0.09 0.01 56 1014.0
20260506130410 63 51 1.0 5.0 0.00 0.09 0.01 56 1014.1
20260506125910 63 50 1.0 8.0 0.00 0.09 0.01 54 1014.2
20260506125409 63 34 2.0 10.0 0.00 0.09 0.01 56 1014.1
20260506124909 63 355 7.0 12.0 0.00 0.09 0.01 53 1014.2
20260506124410 63 26 2.0 10.0 0.00 0.09 0.01 53 1014.2
20260506123910 63 49 3.0 10.0 0.00 0.09 0.01 51 1014.2